SWA532 KSAN-PHNL

Flight info

Callsign SWA532
Flight time N/A
Altitude 34000
Route PADRZ2 IKAYE MQO AUDIA ADUMM CUNDU BILLO R464 BITTA MAGGI3
Aircraft B738/M-SADE2E3GIJ4RWZ/LB1D1

Departure

Time 2026-05-05 22:25
Airport San Diego International Airport (KSAN)

Arrival

Time N/A
Airport Daniel K. Inouye International Airport (PHNL)
Time Latitude Longitude Altitude Speed Heading
2026-05-05 22:11 32.73425 -117.20072 22 ft 0 kts 211°
2026-05-05 22:19 32.73439 -117.20064 23 ft 2 kts 207°
2026-05-05 22:20 32.73454 -117.20056 23 ft 2 kts 199°
2026-05-05 22:20 32.73470 -117.20050 26 ft 2 kts 189°
2026-05-05 22:20 32.73486 -117.20049 25 ft 2 kts 174°
2026-05-05 22:20 32.73502 -117.20054 24 ft 2 kts 152°
2026-05-05 22:21 32.73515 -117.20065 24 ft 2 kts 128°
2026-05-05 22:21 32.73522 -117.20078 25 ft 1 kts 111°
2026-05-05 22:21 32.73523 -117.20080 25 ft 0 kts 109°
2026-05-05 22:22 32.73522 -117.20079 25 ft 2 kts 109°
2026-05-05 22:22 32.73488 -117.19940 22 ft 34 kts 106°
2026-05-05 22:22 32.73402 -117.19587 22 ft 49 kts 105°
2026-05-05 22:22 32.73311 -117.19205 23 ft 47 kts 106°
2026-05-05 22:23 32.73224 -117.18846 23 ft 43 kts 107°
2026-05-05 22:23 32.73142 -117.18517 23 ft 40 kts 105°
2026-05-05 22:23 32.73068 -117.18214 22 ft 37 kts 107°
2026-05-05 22:23 32.73001 -117.17928 21 ft 36 kts 104°
2026-05-05 22:24 32.72959 -117.17757 21 ft 24 kts 105°
2026-05-05 22:24 32.73008 -117.17620 21 ft 15 kts 354°
2026-05-05 22:24 32.73056 -117.17733 21 ft 27 kts 286°
2026-05-05 22:24 32.73179 -117.18241 23 ft 99 kts 286°
2026-05-05 22:25 32.73430 -117.19269 23 ft 159 kts 286°
2026-05-05 22:25 32.73781 -117.20697 255 ft 196 kts 285°
2026-05-05 22:25 32.74200 -117.22304 920 ft 202 kts 291°
2026-05-05 22:25 32.74993 -117.23608 1994 ft 192 kts 309°
2026-05-05 22:26 32.75869 -117.24898 2342 ft 211 kts 304°
2026-05-05 22:26 32.76757 -117.26355 2744 ft 222 kts 303°
2026-05-05 22:26 32.77652 -117.27875 3267 ft 231 kts 303°
2026-05-05 22:26 32.78607 -117.29527 3633 ft 248 kts 303°
2026-05-05 22:27 32.79593 -117.31244 4286 ft 255 kts 303°
2026-05-05 22:27 32.80634 -117.32948 5156 ft 254 kts 306°
2026-05-05 22:27 32.81724 -117.34630 5810 ft 261 kts 306°
2026-05-05 22:27 32.82843 -117.36346 6545 ft 262 kts 306°
2026-05-05 22:28 32.83960 -117.38062 7154 ft 267 kts 306°
2026-05-05 22:28 32.85096 -117.39813 7858 ft 269 kts 306°
2026-05-05 22:28 32.86245 -117.41589 8511 ft 273 kts 305°
2026-05-05 22:28 32.87408 -117.43390 9182 ft 276 kts 305°
2026-05-05 22:29 32.88578 -117.45205 9886 ft 278 kts 304°
2026-05-05 22:29 32.89763 -117.47046 10411 ft 286 kts 304°
2026-05-05 22:29 32.91012 -117.48992 10572 ft 307 kts 304°
2026-05-05 22:29 32.92351 -117.51079 10724 ft 326 kts 305°
2026-05-05 22:30 32.93772 -117.53291 10869 ft 346 kts 305°
2026-05-05 22:30 32.95264 -117.55617 11111 ft 360 kts 305°
2026-05-05 22:30 32.96798 -117.58006 11627 ft 365 kts 305°
2026-05-05 22:30 32.98347 -117.60419 12243 ft 367 kts 305°
2026-05-05 22:31 32.99900 -117.62841 12863 ft 369 kts 305°
2026-05-05 22:31 33.01462 -117.65282 13466 ft 372 kts 305°
2026-05-05 22:31 33.03041 -117.67749 14006 ft 375 kts 305°
2026-05-05 22:31 33.04611 -117.70204 14513 ft 378 kts 304°
2026-05-05 22:32 33.06219 -117.72700 15044 ft 381 kts 307°
2026-05-05 22:32 33.08106 -117.74949 15567 ft 387 kts 317°
2026-05-05 22:32 33.10196 -117.76999 16100 ft 390 kts 318°
2026-05-05 22:32 33.12308 -117.79049 16579 ft 393 kts 317°
2026-05-05 22:33 33.14423 -117.81143 17066 ft 396 kts 317°
2026-05-05 22:33 33.16535 -117.83276 17585 ft 399 kts 316°
2026-05-05 22:33 33.18650 -117.85431 18068 ft 402 kts 316°
2026-05-05 22:33 33.20742 -117.87659 18526 ft 403 kts 313°
2026-05-05 22:34 33.22759 -117.90006 18983 ft 404 kts 311°
2026-05-05 22:34 33.24745 -117.92403 19415 ft 406 kts 311°
2026-05-05 22:34 33.26733 -117.94826 19844 ft 408 kts 310°
2026-05-05 22:34 33.28730 -117.97255 20267 ft 411 kts 310°
2026-05-05 22:35 33.30747 -117.99698 20692 ft 413 kts 310°
2026-05-05 22:35 33.32754 -118.02115 21104 ft 415 kts 310°
2026-05-05 22:35 33.34795 -118.04567 21513 ft 417 kts 310°
2026-05-05 22:35 33.36852 -118.07032 21915 ft 419 kts 310°
2026-05-05 22:36 33.38923 -118.09513 22313 ft 421 kts 310°
2026-05-05 22:36 33.40997 -118.11999 22699 ft 423 kts 310°
2026-05-05 22:36 33.43083 -118.14499 23082 ft 425 kts 310°
2026-05-05 22:36 33.45183 -118.17019 23420 ft 428 kts 310°
2026-05-05 22:37 33.47288 -118.19547 23738 ft 430 kts 310°
2026-05-05 22:37 33.49410 -118.22096 24036 ft 432 kts 309°
2026-05-05 22:37 33.51540 -118.24657 24320 ft 434 kts 309°
2026-05-05 22:37 33.53680 -118.27233 24584 ft 437 kts 309°
2026-05-05 22:38 33.55828 -118.29820 24836 ft 439 kts 309°
2026-05-05 22:38 33.57993 -118.32430 25103 ft 441 kts 309°
2026-05-05 22:38 33.60161 -118.35045 25372 ft 443 kts 308°
2026-05-05 22:38 33.62340 -118.37676 25643 ft 445 kts 308°
2026-05-05 22:39 33.64494 -118.40277 25891 ft 447 kts 308°
2026-05-05 22:39 33.66689 -118.42931 26123 ft 449 kts 308°
2026-05-05 22:39 33.68897 -118.45603 26344 ft 451 kts 308°
2026-05-05 22:39 33.71096 -118.48266 26577 ft 453 kts 308°
2026-05-05 22:40 33.73322 -118.50963 26805 ft 455 kts 308°
2026-05-05 22:40 33.75557 -118.53674 27024 ft 457 kts 308°
2026-05-05 22:40 33.77802 -118.56397 27235 ft 459 kts 307°
2026-05-05 22:40 33.80052 -118.59131 27469 ft 460 kts 307°
2026-05-05 22:41 33.82311 -118.61875 27799 ft 460 kts 307°
2026-05-05 22:41 33.84559 -118.64607 28144 ft 458 kts 307°
2026-05-05 22:41 33.86800 -118.67333 28456 ft 458 kts 307°
2026-05-05 22:41 33.89041 -118.70064 28726 ft 459 kts 307°
2026-05-05 22:42 33.91287 -118.72803 29013 ft 459 kts 307°
2026-05-05 22:42 33.93499 -118.75504 29322 ft 458 kts 307°
2026-05-05 22:42 33.95738 -118.78238 29627 ft 458 kts 306°
2026-05-05 22:42 33.97973 -118.80971 29921 ft 458 kts 306°
2026-05-05 22:43 34.00206 -118.83703 30194 ft 458 kts 306°
2026-05-05 22:43 34.02441 -118.86439 30468 ft 457 kts 306°
2026-05-05 22:43 34.04668 -118.89167 30744 ft 456 kts 306°
2026-05-05 22:43 34.06886 -118.91888 31011 ft 455 kts 306°
2026-05-05 22:44 34.09108 -118.94616 31243 ft 455 kts 306°
2026-05-05 22:44 34.11325 -118.97340 31482 ft 455 kts 306°
2026-05-05 22:44 34.13546 -119.00068 31744 ft 454 kts 305°
2026-05-05 22:44 34.15688 -119.02845 31971 ft 449 kts 301°
2026-05-05 22:45 34.17659 -119.05750 32191 ft 446 kts 299°
2026-05-05 22:45 34.19542 -119.08711 32417 ft 444 kts 298°
2026-05-05 22:45 34.21377 -119.11656 32635 ft 444 kts 298°
2026-05-05 22:45 34.23236 -119.14633 32866 ft 443 kts 298°
2026-05-05 22:46 34.25106 -119.17600 33088 ft 443 kts 299°
2026-05-05 22:46 34.26986 -119.20557 33294 ft 443 kts 299°
2026-05-05 22:46 34.28877 -119.23508 33500 ft 443 kts 299°
2026-05-05 22:46 34.30771 -119.26452 33709 ft 443 kts 299°
2026-05-05 22:47 34.32664 -119.29389 33928 ft 443 kts 300°
2026-05-05 22:47 34.36454 -119.35272 34007 ft 442 kts 300°
2026-05-05 22:48 34.40201 -119.41098 34020 ft 442 kts 300°
2026-05-05 22:48 34.43981 -119.46990 34001 ft 443 kts 300°
2026-05-05 22:49 34.47770 -119.52906 34003 ft 444 kts 300°
2026-05-05 22:49 34.51553 -119.58827 33980 ft 445 kts 300°
2026-05-05 22:50 34.55341 -119.64758 34001 ft 444 kts 300°
2026-05-05 22:50 34.59112 -119.70669 34019 ft 441 kts 300°
2026-05-05 22:51 34.62867 -119.76568 34002 ft 442 kts 300°
2026-05-05 22:51 34.66618 -119.82473 34027 ft 442 kts 299°
2026-05-05 22:52 34.70353 -119.88363 34039 ft 442 kts 299°
2026-05-05 22:52 34.74112 -119.94301 34019 ft 443 kts 299°
2026-05-05 22:53 34.77850 -120.00212 34031 ft 439 kts 299°
2026-05-05 22:53 34.81573 -120.06109 34037 ft 439 kts 298°
2026-05-05 22:54 34.85296 -120.12022 34046 ft 440 kts 298°
2026-05-05 22:54 34.89027 -120.17957 34067 ft 442 kts 298°
2026-05-05 22:55 34.92748 -120.23886 34065 ft 443 kts 298°
2026-05-05 22:55 34.96494 -120.29858 34079 ft 444 kts 298°
2026-05-05 22:56 35.00238 -120.35842 34070 ft 443 kts 298°
2026-05-05 22:56 35.03973 -120.41819 34083 ft 443 kts 297°
2026-05-05 22:57 35.07703 -120.47802 34065 ft 443 kts 297°
2026-05-05 22:57 35.11434 -120.53794 34074 ft 442 kts 297°
2026-05-05 22:58 35.15155 -120.59782 34063 ft 441 kts 297°
2026-05-05 22:58 35.18859 -120.65751 34071 ft 440 kts 297°
2026-05-05 22:59 35.22280 -120.71811 34040 ft 422 kts 283°
2026-05-05 22:59 35.23032 -120.75177 34057 ft 403 kts 269°
2026-05-05 22:59 35.23106 -120.78555 34112 ft 393 kts 259°
2026-05-05 22:59 35.22645 -120.81826 34062 ft 389 kts 248°
2026-05-05 23:00 35.20423 -120.87836 34066 ft 390 kts 240°
2026-05-05 23:00 35.17884 -120.93733 34062 ft 392 kts 240°
2026-05-05 23:01 35.15354 -120.99633 34059 ft 391 kts 240°
2026-05-05 23:01 35.12856 -121.05537 34056 ft 390 kts 240°
2026-05-05 23:02 35.10374 -121.11435 34055 ft 390 kts 240°
2026-05-05 23:02 35.07894 -121.17330 34066 ft 390 kts 240°
2026-05-05 23:03 35.05422 -121.23200 34064 ft 392 kts 240°
2026-05-05 23:03 35.02918 -121.29133 34056 ft 394 kts 240°
2026-05-05 23:04 35.00822 -121.34091 34068 ft 396 kts 240°
2026-05-05 23:04 34.98287 -121.40078 34065 ft 399 kts 240°
2026-05-05 23:05 34.95731 -121.46103 34077 ft 402 kts 240°
2026-05-05 23:05 34.93150 -121.52177 34073 ft 404 kts 241°
2026-05-05 23:06 34.90552 -121.58280 34071 ft 407 kts 241°
2026-05-05 23:06 34.87935 -121.64416 34079 ft 409 kts 241°
2026-05-05 23:07 34.85301 -121.70583 34082 ft 411 kts 241°
2026-05-05 23:07 34.82656 -121.76762 34082 ft 412 kts 241°
2026-05-05 23:08 34.79999 -121.82959 34073 ft 413 kts 241°
2026-05-05 23:08 34.77351 -121.89123 34073 ft 414 kts 241°
2026-05-05 23:09 34.74679 -121.95332 34086 ft 415 kts 241°
2026-05-05 23:09 34.71999 -122.01549 34077 ft 415 kts 241°
2026-05-05 23:10 34.69313 -122.07768 34078 ft 416 kts 241°
2026-05-05 23:10 34.66616 -122.13999 34083 ft 417 kts 241°
2026-05-05 23:11 34.63913 -122.20236 34087 ft 418 kts 241°
2026-05-05 23:11 34.61202 -122.26477 34083 ft 419 kts 241°
2026-05-05 23:12 34.58493 -122.32704 34088 ft 420 kts 241°
2026-05-05 23:12 34.55754 -122.38986 34081 ft 421 kts 241°
2026-05-05 23:13 34.53003 -122.45286 34092 ft 422 kts 241°
2026-05-05 23:13 34.50246 -122.51589 34086 ft 424 kts 241°
2026-05-05 23:14 34.47487 -122.57883 34096 ft 426 kts 242°
2026-05-05 23:14 34.44696 -122.64239 34088 ft 427 kts 242°
2026-05-05 23:15 34.41893 -122.70610 34100 ft 429 kts 242°
2026-05-05 23:15 34.39077 -122.77002 34087 ft 431 kts 242°
2026-05-05 23:16 34.36244 -122.83418 34103 ft 433 kts 242°
2026-05-05 23:16 34.33400 -122.89849 34093 ft 435 kts 242°
2026-05-05 23:17 34.30552 -122.96276 34103 ft 436 kts 242°
2026-05-05 23:17 34.27678 -123.02751 34092 ft 438 kts 242°
2026-05-05 23:18 34.25294 -123.09504 34103 ft 438 kts 255°
2026-05-05 23:18 34.24449 -123.16805 34118 ft 440 kts 266°
2026-05-05 23:19 34.24160 -123.24208 34109 ft 441 kts 266°
2026-05-05 23:19 34.23866 -123.31623 34098 ft 442 kts 266°
2026-05-05 23:20 34.23542 -123.39052 34108 ft 443 kts 266°
2026-05-05 23:20 34.23198 -123.46504 34104 ft 444 kts 266°
2026-05-05 23:21 34.22846 -123.53967 34111 ft 445 kts 266°
2026-05-05 23:21 34.22490 -123.61408 34107 ft 446 kts 266°
2026-05-05 23:22 34.22127 -123.68913 34113 ft 447 kts 266°
2026-05-05 23:22 34.21939 -123.72670 33844 ft 448 kts 270°
2026-05-05 23:22 34.21754 -123.76430 33991 ft 449 kts 270°
2026-05-05 23:23 34.21382 -123.83998 34106 ft 454 kts 270°
2026-05-05 23:23 34.21003 -123.91636 34120 ft 461 kts 270°
2026-05-05 23:24 34.20608 -123.99428 34123 ft 467 kts 269°
2026-05-05 23:24 34.20202 -124.07321 34122 ft 474 kts 269°
2026-05-05 23:25 34.19785 -124.15312 34130 ft 479 kts 269°
2026-05-05 23:25 34.19360 -124.23364 34116 ft 481 kts 269°
2026-05-05 23:26 34.18929 -124.31404 34114 ft 482 kts 269°
2026-05-05 23:26 34.18492 -124.39485 34117 ft 482 kts 269°
2026-05-05 23:27 34.18049 -124.47560 34110 ft 480 kts 269°
2026-05-05 23:27 34.17603 -124.55593 34112 ft 478 kts 269°
2026-05-05 23:28 34.17156 -124.63575 34116 ft 475 kts 269°
2026-05-05 23:28 34.16705 -124.71530 34121 ft 473 kts 269°
2026-05-05 23:29 34.16254 -124.79389 34125 ft 472 kts 268°
2026-05-05 23:29 34.15796 -124.87291 34128 ft 471 kts 268°
2026-05-05 23:30 34.15335 -124.95171 34130 ft 471 kts 268°
2026-05-05 23:30 34.14867 -125.03068 34129 ft 472 kts 268°
2026-05-05 23:31 34.14393 -125.10970 34133 ft 473 kts 268°
2026-05-05 23:31 34.13914 -125.18890 34128 ft 474 kts 268°
2026-05-05 23:32 34.13427 -125.26839 34129 ft 475 kts 268°
2026-05-05 23:32 34.12934 -125.34800 34132 ft 476 kts 268°
2026-05-05 23:33 34.12436 -125.42772 34132 ft 476 kts 268°
2026-05-05 23:33 34.11935 -125.50691 34131 ft 477 kts 268°
2026-05-05 23:34 34.11425 -125.58675 34138 ft 476 kts 268°
2026-05-05 23:34 34.10911 -125.66649 34139 ft 476 kts 268°
2026-05-05 23:35 34.10395 -125.74569 34128 ft 475 kts 268°
2026-05-05 23:35 34.09872 -125.82517 34135 ft 474 kts 268°
2026-05-05 23:36 34.09345 -125.90450 34132 ft 474 kts 267°
2026-05-05 23:36 34.08813 -125.98368 34144 ft 473 kts 267°
2026-05-05 23:37 34.08278 -126.06275 34145 ft 472 kts 267°
2026-05-05 23:37 34.07738 -126.14162 34143 ft 471 kts 267°
2026-05-05 23:38 34.07198 -126.21989 34144 ft 471 kts 267°
2026-05-05 23:38 34.06649 -126.29866 34148 ft 471 kts 267°
2026-05-05 23:39 34.06096 -126.37734 34148 ft 471 kts 267°
2026-05-05 23:39 34.05537 -126.45608 34151 ft 470 kts 267°
2026-05-05 23:40 34.04976 -126.53434 34151 ft 470 kts 267°
2026-05-05 23:40 34.04407 -126.61306 34154 ft 470 kts 267°
2026-05-05 23:41 34.03833 -126.69179 34152 ft 470 kts 267°
2026-05-05 23:41 34.03255 -126.77033 34156 ft 470 kts 267°
2026-05-05 23:42 34.02672 -126.84891 34154 ft 470 kts 267°
2026-05-05 23:42 34.02084 -126.92747 34158 ft 470 kts 267°
2026-05-05 23:43 34.01496 -127.00536 34157 ft 470 kts 267°
2026-05-05 23:43 34.00899 -127.08378 34161 ft 469 kts 266°
2026-05-05 23:44 34.00297 -127.16221 34157 ft 469 kts 266°
2026-05-05 23:44 33.99691 -127.24042 34161 ft 469 kts 266°
2026-05-05 23:45 33.99080 -127.31862 34166 ft 468 kts 266°
2026-05-05 23:45 33.98465 -127.39676 34163 ft 468 kts 266°
2026-05-05 23:46 33.97850 -127.47434 34163 ft 467 kts 266°
2026-05-05 23:46 33.97226 -127.55227 34163 ft 467 kts 266°
2026-05-05 23:47 33.96599 -127.63009 34168 ft 467 kts 266°
2026-05-05 23:47 33.95966 -127.70790 34169 ft 467 kts 266°
2026-05-05 23:48 33.95328 -127.78582 34172 ft 467 kts 266°
2026-05-05 23:48 33.94690 -127.86311 34175 ft 466 kts 266°
2026-05-05 23:49 33.94042 -127.94090 34176 ft 466 kts 266°
2026-05-05 23:49 33.93391 -128.01865 34176 ft 466 kts 266°
2026-05-05 23:50 33.92734 -128.09638 34180 ft 466 kts 266°
2026-05-05 23:50 33.92076 -128.17363 34178 ft 466 kts 266°
2026-05-05 23:51 33.91411 -128.25121 34180 ft 465 kts 266°
2026-05-05 23:51 33.90742 -128.32869 34182 ft 465 kts 266°
2026-05-05 23:52 33.90067 -128.40618 34180 ft 465 kts 266°
2026-05-05 23:52 33.89504 -128.47048 34184 ft 464 kts 266°
2026-05-05 23:53 33.88822 -128.54776 34181 ft 464 kts 266°
2026-05-05 23:53 33.88136 -128.62501 34185 ft 464 kts 266°
2026-05-05 23:54 33.87446 -128.70219 34186 ft 464 kts 266°
2026-05-05 23:54 33.86751 -128.77936 34192 ft 463 kts 266°
2026-05-05 23:55 33.86002 -128.85650 34187 ft 463 kts 265°
2026-05-05 23:55 33.85206 -128.93339 34192 ft 463 kts 265°
2026-05-05 23:56 33.84412 -129.00976 34193 ft 463 kts 265°
2026-05-05 23:56 33.83616 -129.08657 34196 ft 462 kts 265°
2026-05-05 23:57 33.82820 -129.16329 34195 ft 462 kts 265°
2026-05-05 23:57 33.82019 -129.24003 34197 ft 462 kts 265°
2026-05-05 23:58 33.81215 -129.31663 34195 ft 461 kts 265°
2026-05-05 23:58 33.80407 -129.39315 34200 ft 461 kts 265°
2026-05-05 23:59 33.79599 -129.46921 34198 ft 461 kts 265°
2026-05-05 23:59 33.78776 -129.54614 34204 ft 461 kts 265°
2026-05-06 00:00 33.77960 -129.62207 34196 ft 461 kts 265°
2026-05-06 00:00 33.77134 -129.69841 34200 ft 460 kts 265°
2026-05-06 00:01 33.76303 -129.77473 34211 ft 460 kts 265°
2026-05-06 00:01 33.75469 -129.85089 34206 ft 460 kts 265°
2026-05-06 00:02 33.74630 -129.92710 34205 ft 459 kts 265°
2026-05-06 00:02 33.73787 -130.00330 34204 ft 459 kts 264°
2026-05-06 00:03 33.72940 -130.07932 34201 ft 459 kts 264°
2026-05-06 00:03 33.72094 -130.15488 34206 ft 459 kts 264°
2026-05-06 00:04 33.71238 -130.23086 34206 ft 458 kts 265°
2026-05-06 00:04 33.70378 -130.30682 34206 ft 458 kts 264°
2026-05-06 00:05 33.69086 -130.42001 34209 ft 457 kts 264°
2026-05-06 00:06 33.68218 -130.49559 34212 ft 457 kts 264°
2026-05-06 00:06 33.67346 -130.57115 34209 ft 456 kts 264°
2026-05-06 00:07 33.66470 -130.64661 34214 ft 456 kts 264°
2026-05-06 00:07 33.65594 -130.72166 34209 ft 456 kts 264°
2026-05-06 00:08 33.64708 -130.79711 34215 ft 455 kts 264°
2026-05-06 00:08 33.63818 -130.87251 34211 ft 455 kts 264°
2026-05-06 00:09 33.62926 -130.94775 34217 ft 455 kts 264°
2026-05-06 00:09 33.62035 -131.02247 34216 ft 455 kts 264°
2026-05-06 00:10 33.61133 -131.09765 34218 ft 455 kts 264°
2026-05-06 00:10 33.60228 -131.17274 34214 ft 454 kts 264°
2026-05-06 00:11 33.59325 -131.24729 34217 ft 454 kts 264°
2026-05-06 00:11 33.58413 -131.32224 34222 ft 454 kts 264°
2026-05-06 00:12 33.57496 -131.39711 34219 ft 454 kts 264°
2026-05-06 00:12 33.56575 -131.47200 34219 ft 453 kts 264°
2026-05-06 00:13 33.55651 -131.54674 34223 ft 453 kts 264°
2026-05-06 00:13 33.54722 -131.62149 34223 ft 453 kts 264°
2026-05-06 00:14 33.53789 -131.69616 34224 ft 453 kts 264°
2026-05-06 00:14 33.52853 -131.77075 34229 ft 452 kts 264°
2026-05-06 00:15 33.51912 -131.84530 34230 ft 452 kts 264°
2026-05-06 00:15 33.50974 -131.91925 34228 ft 451 kts 264°
2026-05-06 00:16 33.50028 -131.99349 34223 ft 450 kts 264°
2026-05-06 00:16 33.49080 -132.06753 34225 ft 449 kts 265°
2026-05-06 00:17 33.48130 -132.14137 34229 ft 447 kts 265°
2026-05-06 00:17 33.47180 -132.21483 34223 ft 445 kts 265°
2026-05-06 00:18 33.46229 -132.28804 34229 ft 443 kts 265°
2026-05-06 00:18 33.45284 -132.36041 34228 ft 441 kts 266°
2026-05-06 00:19 33.44335 -132.43275 34227 ft 438 kts 266°
2026-05-06 00:19 33.43387 -132.50472 34227 ft 436 kts 266°
2026-05-06 00:20 33.42439 -132.57635 34227 ft 434 kts 266°
2026-05-06 00:20 33.41493 -132.64752 34231 ft 432 kts 266°
2026-05-06 00:21 33.40545 -132.71859 34234 ft 431 kts 266°
2026-05-06 00:21 33.39596 -132.78935 34234 ft 431 kts 266°
2026-05-06 00:22 33.38643 -132.86012 34234 ft 431 kts 266°
2026-05-06 00:22 33.37691 -132.93051 34235 ft 431 kts 266°
2026-05-06 00:23 33.36728 -133.00141 34239 ft 432 kts 266°
2026-05-06 00:23 33.35757 -133.07251 34235 ft 433 kts 266°
2026-05-06 00:24 33.34783 -133.14361 34236 ft 434 kts 266°
2026-05-06 00:24 33.33801 -133.21492 34238 ft 434 kts 266°